sat.trackr.live / text

‹ back to catalog

STARLINK-32558

NORAD 62169 · 2024-225G

PAYLOAD ACTIVE UNKNOWN

§ Identity

Operator
Country
US
Launch date
2024-11-30
Launch site
AFWTR
Launch vehicle
Mass (kg)
RCS (m²)

Purposes: comms

External: N2YO · Heavens-Above · Gunter

§ Orbital elements

Epoch: 2026-05-24T22:18:33.888096Z

Period
96.11 min
Inclination
70.0019°
Eccentricity
0.0002669
Mean motion
14.98337415 rev/d
Perigee alt
570.2 km
Apogee alt
573.9 km
Semi-major
6,950.2 km
B*
2.8587e-4
RAAN
332.2793°
Arg perigee
267.3327°
Mean anomaly
92.7526°
Rev number
8,129

§ Raw data

STARLINK-325581 62169U 24225G   26144.92955889  .00003320  00000+0  28587-3 0  99912 62169  70.0019 332.2793 0002669 267.3327  92.7526 14.98337415 81291

JSON: /api/v1/satellites/62169 · /tle

For live sub-satellite position, see the globe view (requires WebGL).

§ Visibility from observer

Set your observer location to see the next 7 days of passes ≥ 10°. The values pass through the URL so the page stays shareable.

No JS? Fill the form by hand. The geolocation button needs JavaScript.